Hourly Data Report for March 23, 2015

All times are specified in Local Standard Time (LST). Add 1 hour to adjust for Daylight Saving Time where and when it is observed.

MIRAMICHI RCS
NEW BRUNSWICK

47°00'34.000" N
65°27'54.000" W
33.00 m
8100989
71744
ACQ

Download Data

Hourly Data (March 2015)
Hourly Data Report for March 23, 2015
TIME Temp Definition
°C
Dew Point Definition
°C
Rel Hum Definition
%
Wind Dir Definition
10's deg

Wind Spd Definition
km/h
Visibility Definition
km
Stn Press Definition
kPa
Hmdx Definition


Wind Chill Definition


Weather Definition


00:00 -12.8 -17.2 70 27 26   99.29   -23 LegendNANA
01:00 -13.3 -16.9 74 26 26   99.32   -23 LegendNANA
02:00 -13.2 -17.1 72 26 25   99.36   -23 LegendNANA
03:00 -13.5 -16.3 79 26 28   99.40   -24 LegendNANA
04:00 -13.7 -16.6 79 26 26   99.43   -24 LegendNANA
05:00 -13.8 -18.2 69 26 29   99.48   -24 LegendNANA
06:00 -14.0 -19.3 64 26 29   99.54   -25 LegendNANA
07:00 -14.0 -19.3 64 26 30   99.63   -25 LegendNANA
08:00 -13.1 -18.8 62 26 31   99.68   -24 LegendNANA
09:00 -11.7 -18.4 57 27 29   99.73   -22 LegendNANA
10:00 -10.2 -16.8 58 27 26   99.82   -19 LegendNANA
11:00 -9.5 -16.2 58 26 31   99.89   -19 LegendNANA
12:00 -7.9 -15.4 55 27 29   99.98   -17 LegendNANA
13:00 -5.5 -14.1 51 26 27   100.05   -13 LegendNANA
14:00 -3.5 -13.2 47 27 25   100.13   -10 LegendNANA
15:00 -2.8 -12.6 47 28 23   100.21   -9 LegendNANA
16:00 -2.8 -12.2 48 28 25   100.34   -10 LegendNANA
17:00 -2.7 -12.1 49 29 21   100.49   -9 LegendNANA
18:00 -3.0 -11.7 51 26 16   100.64   -8 LegendNANA
19:00 -4.3 -11.8 56 27 13   100.78   -9 LegendNANA
20:00 -6.4 -12.4 63 24 13   100.93   -12 LegendNANA
21:00 -6.0 -11.8 63 26 14   101.03   -12 LegendNANA
22:00 -7.1 -12.3 66 26 11   101.12   -12 LegendNANA
23:00 -7.8 -12.3 70 27 10   101.16   -13 LegendNANA

Notes on Data Quality.

Legend

  • E = Estimated
  • M = Missing
  • NA = Not Available
Date modified: